Location: Zagreb
(45.8000°N, 16.0000°E)
Time: 08:50:32
(UTC+01:00)

Vanguard 1 - Visible Passes

Search period start: 26 October 2020 00:00
Search period end: 05 November 2020 00:00
Orbit: 650 x 3833 km, 34.3° (Epoch: 25 October)

Date Brightness Start Highest point End Pass type
(mag) Time Alt. Az. Time Alt. Az. Time Alt. Az.
26 Oct 12.9 16:52:17 10° W 17:12:14 51° SSW 17:24:18 10° SE visible
26 Oct 12.9 19:20:41 10° W 19:32:57 26° SW 19:41:04 10° S visible
27 Oct 13.0 17:13:42 10° W 17:32:56 47° SSW 17:44:39 10° SE visible
27 Oct 13.0 19:43:01 10° W 19:52:59 20° SW 20:00:07 10° S visible
28 Oct 13.0 17:35:13 10° W 17:53:29 42° SSW 18:04:49 10° SE visible
28 Oct 13.3 20:06:19 10° W 20:12:53 14° SW 20:18:09 10° SSW visible
29 Oct 13.1 17:56:51 10° W 18:13:52 36° SW 18:24:45 10° SSE visible
30 Oct 13.2 18:18:43 10° W 18:34:05 29° SW 18:44:22 10° SSE visible
31 Oct 13.3 18:40:57 10° W 18:54:09 23° SW 19:03:32 10° S visible
01 Nov 13.6 19:03:54 10° W 19:14:05 17° SW 19:21:55 10° SSW visible
02 Nov 13.4 16:54:58 10° W 17:14:15 39° SW 17:27:30 10° SSE visible
02 Nov 13.8 19:28:47 10° WSW 19:33:53 12° WSW 19:38:21 10° SW visible
03 Nov 13.5 17:16:46 10° W 17:34:33 32° SW 17:47:10 10° SSE visible
04 Nov 13.7 17:38:54 10° W 17:54:41 26° SW 18:06:22 10° S visible
